GW6812 Weather Reports


time (UTC)temp
C
wind
direction
speed
KPH
gust
KPH
rain 1hr
cm
rain 24hr
cm
rain mn
cm
humidity
%
barometer
mb
20260507052503 14 222 0.0 0.0 0.00 0.00 0.00 79 1017.2
20260507051959 14 225 0.0 0.0 0.00 0.00 0.00 79 1017.5
20260507051457 15 222 0.0 0.0 0.00 0.00 0.00 80 1017.1
20260507050954 15 222 0.0 0.0 0.00 0.00 0.00 79 1017.1
20260507050450 15 223 0.0 0.0 0.00 0.00 0.00 78 1017.0
20260507045947 15 230 0.0 0.0 0.00 0.00 0.00 79 1017.1
20260507045444 15 226 0.0 0.0 0.00 0.00 0.00 78 1017.1
20260507044941 15 231 0.0 0.0 0.00 0.00 0.00 77 1017.1
20260507044438 15 222 0.0 0.0 0.00 0.00 0.00 77 1017.2
20260507043934 15 229 0.0 0.0 0.00 0.00 0.00 76 1017.1
20260507043430 15 232 0.0 3.2 0.00 0.00 0.00 76 1017.1
20260507042926 15 226 0.0 0.0 0.00 0.00 0.00 76 1017.2
20260507042423 15 226 0.0 0.0 0.00 0.00 0.00 76 1017.1
20260507041919 15 226 0.0 0.0 0.00 0.00 0.00 75 1017.0
20260507041416 16 223 0.0 0.0 0.00 0.00 0.00 74 1017.1
20260507040914 16 226 0.0 0.0 0.00 0.00 0.00 74 1017.1
20260507040409 16 223 0.0 0.0 0.00 0.00 0.00 73 1017.0
20260507035905 16 221 0.0 0.0 0.00 0.00 0.00 73 1016.8
20260507035401 16 217 0.0 0.0 0.00 0.00 0.00 73 1016.6
20260507034859 16 214 1.6 1.6 0.00 0.00 0.00 72 1016.7
20260507034355 16 238 0.0 0.0 0.00 0.00 0.00 72 1016.8
20260507033853 16 217 0.0 1.6 0.00 0.00 0.00 72 1016.5
20260507033351 16 231 0.0 0.0 0.00 0.00 0.00 72 1016.5
20260507032848 16 248 0.0 1.6 0.00 0.00 0.00 71 1016.5
20260507032345 16 222 0.0 1.6 0.00 0.00 0.00 71 1016.5
20260507031841 17 250 1.6 1.6 0.00 0.00 0.00 70 1016.3
20260507031338 17 237 1.6 1.6 0.00 0.00 0.00 69 1016.2
20260507030834 17 235 1.6 3.2 0.00 0.00 0.00 68 1016.4
20260507030332 17 250 1.6 3.2 0.00 0.00 0.00 67 1016.3
20260507025828 17 250 0.0 3.2 0.00 0.00 0.00 67 1016.2
20260507025326 17 238 0.0 1.6 0.00 0.00 0.00 66 1016.3
20260507024824 17 243 1.6 3.2 0.00 0.00 0.00 65 1016.1
20260507024320 17 232 0.0 1.6 0.00 0.00 0.00 65 1016.1
20260507023816 17 227 0.0 1.6 0.00 0.00 0.00 64 1015.9
20260507023313 18 265 1.6 3.2 0.00 0.00 0.00 63 1016.2
20260507022811 18 239 0.0 1.6 0.00 0.00 0.00 63 1016.0
20260507022307 18 234 1.6 1.6 0.00 0.00 0.00 62 1016.1
20260507021803 18 232 0.0 1.6 0.00 0.00 0.00 61 1016.2
20260507021258 18 242 1.6 4.8 0.00 0.00 0.00 60 1015.9
20260507020757 18 243 1.6 3.2 0.00 0.00 0.00 60 1016.1
20260507020253 18 240 3.2 4.8 0.00 0.00 0.00 59 1016.0
20260507015750 18 341 3.2 4.8 0.00 0.00 0.00 59 1016.1
20260507015248 18 311 1.6 4.8 0.00 0.00 0.00 59 1015.9
20260507014744 18 255 3.2 4.8 0.00 0.00 0.00 59 1015.9
20260507014241 18 252 1.6 3.2 0.00 0.00 0.00 59 1015.9
20260507013737 19 228 0.0 3.2 0.00 0.00 0.00 59 1015.9
20260507013235 19 236 4.8 4.8 0.00 0.00 0.00 59 1015.9
20260507012732 19 1 6.4 8.0 0.00 0.00 0.00 58 1015.7
20260507012227 19 1 3.2 8.0 0.00 0.00 0.00 58 1015.7
20260507011725 20 220 3.2 8.0 0.00 0.00 0.00 58 1016.0
20260507011222 20 272 3.2 8.0 0.00 0.00 0.00 58 1015.8
20260507010721 20 265 6.4 8.0 0.00 0.00 0.00 56 1016.0
20260507010217 20 276 1.6 8.0 0.00 0.00 0.00 56 1015.7
20260507005715 20 253 3.2 9.7 0.00 0.00 0.00 55 1015.8
20260507005211 20 261 6.4 9.7 0.00 0.00 0.00 56 1015.9
20260507004708 21 334 1.6 9.7 0.00 0.00 0.00 55 1015.7
20260507004206 20 237 3.2 8.0 0.00 0.00 0.00 56 1015.9
20260507003702 21 344 3.2 8.0 0.00 0.00 0.00 55 1015.7
20260507003157 21 343 6.4 8.0 0.00 0.00 0.00 56 1015.8
20260507002653 21 354 8.0 9.7 0.00 0.00 0.00 56 1016.0
20260507002149 20 199 3.2 9.7 0.00 0.00 0.00 57 1015.9
20260507001646 21 324 8.0 16.1 0.00 0.00 0.00 56 1015.7
20260507001144 21 293 3.2 9.7 0.00 0.00 0.00 55 1015.9
20260507000640 22 272 1.6 3.2 0.00 0.00 0.00 53 1015.8
20260507000135 22 224 4.8 8.0 0.00 0.00 0.00 53 1015.6
20260506235633 22 234 0.0 4.8 0.00 0.00 0.00 53 1015.8
20260506235133 22 242 0.0 4.8 0.00 0.00 0.00 53 1015.9
20260506234631 22 275 3.2 4.8 0.00 0.00 0.00 53 1015.6
20260506234128 22 237 0.0 4.8 0.00 0.00 0.00 53 1015.6
20260506233625 22 251 6.4 9.7 0.00 0.00 0.00 53 1015.6
20260506233122 22 344 4.8 12.9 0.00 0.00 0.00 54 1015.6
20260506232618 22 313 6.4 9.7 0.00 0.00 0.00 51 1015.6
20260506232113 22 271 3.2 8.0 0.00 0.00 0.00 53 1015.7
20260506231611 22 177 6.4 9.7 0.00 0.00 0.00 53 1015.8
20260506231109 22 256 0.0 8.0 0.00 0.00 0.00 53 1015.7
20260506230605 22 290 3.2 12.9 0.00 0.00 0.00 53 1015.9
20260506225559 22 348 3.2 4.8 0.00 0.00 0.00 51 1015.8
20260506225055 23 252 4.8 9.7 0.00 0.00 0.00 51 1015.8
20260506224552 22 230 3.2 8.0 0.00 0.00 0.00 50 1016.0
20260506224049 22 242 8.0 12.9 0.00 0.00 0.00 51 1016.0
20260506223545 22 331 4.8 9.7 0.00 0.00 0.00 51 1016.0
20260506223042 22 294 4.8 8.0 0.00 0.00 0.00 50 1016.0
20260506222538 22 288 4.8 8.0 0.00 0.00 0.00 51 1016.1
20260506222035 22 304 4.8 9.7 0.00 0.00 0.00 52 1016.2
20260506221532 22 154 3.2 8.0 0.00 0.00 0.00 51 1016.3
20260506221030 22 340 3.2 9.7 0.00 0.00 0.00 51 1016.2
20260506220526 22 268 4.8 12.9 0.00 0.00 0.00 52 1016.4
20260506220022 22 255 4.8 9.7 0.00 0.00 0.00 52 1016.5
20260506215519 23 276 8.0 12.9 0.00 0.00 0.00 50 1016.6
20260506215014 22 237 4.8 11.3 0.00 0.00 0.00 52 1016.6
20260506214512 22 359 11.3 16.1 0.00 0.00 0.00 52 1016.6
20260506214009 23 251 3.2 4.8 0.00 0.00 0.00 50 1016.7
20260506213507 22 195 1.6 9.7 0.00 0.00 0.00 53 1016.6
20260506213004 23 21 4.8 9.7 0.00 0.00 0.00 51 1016.8
20260506212500 23 275 1.6 8.0 0.00 0.00 0.00 52 1016.6
20260506211954 23 175 8.0 11.3 0.00 0.00 0.00 50 1016.8
20260506211451 23 298 4.8 9.7 0.00 0.00 0.00 52 1016.9
20260506210948 23 275 3.2 9.7 0.00 0.00 0.00 52 1016.9
20260506210444 23 298 3.2 4.8 0.00 0.00 0.00 51 1017.0
20260506205942 22 288 4.8 12.9 0.00 0.00 0.00 53 1016.9
20260506205438 23 330 6.4 12.9 0.00 0.00 0.00 52 1016.7
20260506204934 23 251 6.4 9.7 0.00 0.00 0.00 51 1016.8
20260506204432 23 332 6.4 11.3 0.00 0.00 0.00 50 1017.0
20260506203929 23 287 3.2 12.9 0.00 0.00 0.00 51 1017.0
20260506203426 23 200 1.6 8.0 0.00 0.00 0.00 50 1017.0
20260506202923 22 184 3.2 12.9 0.00 0.00 0.00 52 1017.2
20260506202420 23 227 3.2 9.7 0.00 0.00 0.00 50 1017.2
20260506201917 23 337 4.8 9.7 0.00 0.00 0.00 49 1017.1
20260506201414 23 336 4.8 9.7 0.00 0.00 0.00 47 1017.2
20260506200911 23 329 4.8 8.0 0.00 0.00 0.00 49 1017.2
20260506200407 23 249 3.2 8.0 0.00 0.00 0.00 48 1017.2
20260506195903 23 238 4.8 8.0 0.00 0.00 0.00 47 1017.4
20260506195401 22 309 8.0 11.3 0.00 0.00 0.00 48 1017.2
20260506194857 23 245 1.6 4.8 0.00 0.00 0.00 45 1017.4
20260506194354 23 274 3.2 4.8 0.00 0.00 0.00 44 1017.2
20260506193852 23 221 1.6 9.7 0.00 0.00 0.00 47 1017.1
20260506193348 23 228 0.0 1.6 0.00 0.00 0.00 45 1017.5
20260506192844 22 271 4.8 8.0 0.00 0.00 0.00 45 1017.5
20260506192341 22 345 0.0 4.8 0.00 0.00 0.00 46 1017.5
20260506191838 22 272 3.2 11.3 0.00 0.00 0.00 47 1017.6
20260506191335 22 225 3.2 4.8 0.00 0.00 0.00 46 1017.7
20260506190832 22 330 9.7 14.5 0.00 0.00 0.00 47 1017.7
20260506190328 22 191 1.6 1.6 0.00 0.00 0.00 47 1017.7
20260506185825 22 261 3.2 4.8 0.00 0.00 0.00 47 1017.7
20260506185322 22 202 3.2 12.9 0.00 0.00 0.00 47 1017.7
20260506184819 22 215 0.0 4.8 0.00 0.00 0.00 47 1017.8
20260506184316 22 270 3.2 4.8 0.00 0.00 0.00 46 1017.9
20260506183814 21 261 1.6 4.8 0.00 0.00 0.00 48 1018.0
20260506183309 21 191 1.6 4.8 0.00 0.00 0.00 48 1018.0
20260506182806 21 203 3.2 4.8 0.00 0.00 0.00 47 1018.0
20260506182306 21 259 3.2 3.2 0.00 0.00 0.00 47 1018.0
20260506181801 21 247 1.6 8.0 0.00 0.00 0.00 49 1018.1
20260506181258 21 327 3.2 4.8 0.00 0.00 0.00 47 1018.2
20260506180755 21 285 0.0 3.2 0.00 0.00 0.00 49 1018.2
20260506180251 20 215 1.6 3.2 0.00 0.00 0.00 50 1018.4
20260506175747 21 329 4.8 4.8 0.00 0.00 0.00 49 1018.3
20260506175244 21 168 1.6 4.8 0.00 0.00 0.00 52 1018.2
20260506174742 20 211 1.6 3.2 0.00 0.00 0.00 52 1018.2
20260506174239 21 324 1.6 3.2 0.00 0.00 0.00 51 1018.2
20260506173737 20 205 0.0 4.8 0.00 0.00 0.00 53 1018.0
20260506173233 20 273 3.2 8.0 0.00 0.00 0.00 53 1018.1
20260506172730 20 341 4.8 8.0 0.00 0.00 0.00 55 1018.3
20260506172227 20 352 4.8 4.8 0.00 0.00 0.00 52 1018.2
20260506171725 20 243 1.6 3.2 0.00 0.00 0.00 54 1018.3
20260506171222 20 272 3.2 4.8 0.00 0.00 0.00 54 1018.5
20260506170719 19 206 0.0 9.7 0.00 0.00 0.00 57 1018.4
20260506170215 20 328 6.4 9.7 0.00 0.00 0.00 55 1018.2
20260506165714 18 208 0.0 8.0 0.00 0.00 0.00 57 1018.3
20260506165211 19 264 4.8 4.8 0.00 0.00 0.00 53 1018.3
20260506164708 19 338 3.2 3.2 0.00 0.00 0.00 54 1018.3
20260506164205 18 290 1.6 3.2 0.00 0.00 0.00 56 1018.2
20260506163701 18 346 6.4 8.0 0.00 0.00 0.00 56 1018.2
20260506163156 17 247 0.0 3.2 0.00 0.00 0.00 57 1018.2
20260506162653 18 335 4.8 4.8 0.00 0.00 0.00 57 1018.4
20260506162150 18 202 0.0 1.6 0.00 0.00 0.00 56 1018.3
20260506161647 18 282 1.6 3.2 0.00 0.00 0.00 56 1018.3
20260506161144 18 208 0.0 3.2 0.00 0.00 0.00 59 1018.3
20260506160642 17 198 0.0 1.6 0.00 0.00 0.00 60 1018.2
20260506160139 17 324 1.6 3.2 0.00 0.00 0.00 59 1018.2
20260506155637 17 204 0.0 3.2 0.00 0.00 0.00 59 1018.3
20260506155133 16 203 1.6 1.6 0.00 0.00 0.00 63 1018.2
20260506153230 16 198 1.6 1.6 0.00 0.00 0.00 63 1018.3
20260506152727 16 222 1.6 1.6 0.00 0.00 0.00 66 1018.4
20260506152224 16 207 0.0 1.6 0.00 0.00 0.00 66 1018.4
20260506151723 16 210 0.0 1.6 0.00 0.00 0.00 66 1018.4
20260506151219 15 207 0.0 1.6 0.00 0.00 0.00 67 1018.3
20260506150716 15 210 0.0 3.2 0.00 0.00 0.00 69 1018.4
20260506150213 14 211 0.0 0.0 0.00 0.00 0.00 71 1018.4
20260506145710 14 175 1.6 3.2 0.00 0.00 0.00 71 1018.5
20260506145206 13 211 0.0 0.0 0.00 0.00 0.00 74 1018.4
20260506144704 13 190 1.6 4.8 0.00 0.00 0.00 74 1018.3
20260506144201 13 151 1.6 4.8 0.00 0.00 0.00 74 1018.6
20260506143658 12 166 3.2 4.8 0.00 0.00 0.00 74 1018.5
20260506143156 12 141 3.2 3.2 0.00 0.00 0.00 76 1018.4
20260506142654 12 159 1.6 3.2 0.00 0.00 0.00 77 1018.4
20260506142152 11 175 0.0 3.2 0.00 0.00 0.00 80 1018.2
20260506141649 11 218 0.0 1.6 0.00 0.00 0.00 82 1018.3
20260506141148 10 218 0.0 0.0 0.00 0.00 0.00 84 1018.6
20260506140645 10 216 0.0 0.0 0.00 0.00 0.00 84 1018.3
20260506140142 10 203 0.0 1.6 0.00 0.00 0.00 85 1018.2
20260506135639 10 187 1.6 3.2 0.00 0.00 0.00 85 1018.0
20260506135135 9 195 0.0 1.6 0.00 0.00 0.00 87 1018.1
20260506134632 9 226 0.0 0.0 0.00 0.00 0.00 90 1018.3
20260506134127 9 225 0.0 0.0 0.00 0.00 0.00 90 1018.3
20260506133625 8 226 0.0 0.0 0.00 0.00 0.00 90 1018.4
20260506133122 8 227 0.0 0.0 0.00 0.00 0.00 90 1018.1
20260506132619 8 227 0.0 0.0 0.00 0.00 0.00 90 1018.0
20260506132116 8 226 0.0 0.0 0.00 0.00 0.00 90 1018.0
20260506131613 8 227 0.0 0.0 0.00 0.00 0.00 90 1018.2
20260506131109 8 226 0.0 0.0 0.00 0.00 0.00 90 1018.1
20260506130607 8 219 0.0 0.0 0.00 0.00 0.00 90 1018.2
20260506130104 8 226 0.0 0.0 0.00 0.00 0.00 90 1017.9
20260506125602 8 231 0.0 0.0 0.00 0.00 0.00 90 1017.9
20260506125100 8 226 0.0 0.0 0.00 0.00 0.00 90 1017.9
20260506124557 8 224 0.0 0.0 0.00 0.00 0.00 90 1017.8
20260506124055 8 228 0.0 0.0 0.00 0.00 0.00 90 1017.6
20260506123552 8 227 0.0 0.0 0.00 0.00 0.00 90 1017.7
20260506123051 8 221 0.0 0.0 0.00 0.00 0.00 90 1017.6
20260506122547 8 221 0.0 0.0 0.00 0.00 0.00 90 1017.6
20260506122045 8 222 0.0 0.0 0.00 0.00 0.00 90 1017.5
20260506121542 8 221 0.0 0.0 0.00 0.00 0.00 90 1017.6
20260506121038 8 227 0.0 0.0 0.00 0.00 0.00 90 1017.5
20260506120537 8 227 0.0 0.0 0.00 0.00 0.00 90 1017.7
20260506120034 8 226 0.0 0.0 0.00 0.00 0.00 90 1017.5
20260506115532 8 231 0.0 0.0 0.00 0.00 0.00 90 1017.4
20260506115030 8 221 0.0 0.0 0.00 0.00 0.00 90 1017.4
20260506114527 8 220 0.0 0.0 0.00 0.00 0.00 90 1017.6
20260506114025 8 220 0.0 0.0 0.00 0.00 0.00 90 1017.6
20260506113523 8 221 0.0 0.0 0.00 0.00 0.00 90 1017.2
20260506113020 8 221 0.0 0.0 0.00 0.00 0.00 90 1017.4
20260506112516 8 226 0.0 0.0 0.00 0.00 0.00 90 1017.4
20260506112014 8 220 0.0 0.0 0.00 0.00 0.00 90 1017.4
20260506111512 8 221 0.0 0.0 0.00 0.00 0.00 90 1017.2
20260506111008 8 220 0.0 0.0 0.00 0.00 0.00 90 1017.1
20260506110507 8 221 0.0 0.0 0.00 0.00 0.00 90 1017.4
20260506110003 8 226 0.0 0.0 0.00 0.00 0.00 89 1017.4
20260506105459 8 226 0.0 0.0 0.00 0.00 0.00 89 1017.2
20260506104956 9 220 0.0 1.6 0.00 0.00 0.00 89 1017.4
20260506104454 8 221 0.0 0.0 0.00 0.00 0.00 89 1017.1
20260506103952 8 220 0.0 0.0 0.00 0.00 0.00 90 1017.1
20260506103449 8 228 0.0 0.0 0.00 0.00 0.00 89 1017.1
20260506102946 8 245 0.0 0.0 0.00 0.00 0.00 89 1017.5
20260506102444 8 221 0.0 0.0 0.00 0.00 0.00 89 1017.1
20260506101941 9 221 0.0 0.0 0.00 0.00 0.00 89 1017.0
20260506101438 9 221 0.0 0.0 0.00 0.00 0.00 89 1017.1
20260506100935 9 220 0.0 0.0 0.00 0.00 0.00 89 1017.5
20260506100433 9 221 0.0 0.0 0.00 0.00 0.00 89 1017.4
20260506095931 9 226 0.0 0.0 0.00 0.00 0.00 88 1017.7
20260506095429 9 226 0.0 0.0 0.00 0.00 0.00 88 1017.7
20260506094925 9 221 0.0 0.0 0.00 0.00 0.00 88 1017.6
20260506094424 9 224 0.0 0.0 0.00 0.00 0.00 88 1017.5
20260506093921 10 221 0.0 0.0 0.00 0.00 0.00 88 1017.4
20260506093419 9 220 0.0 0.0 0.00 0.00 0.00 88 1017.4
20260506092916 10 220 0.0 0.0 0.00 0.00 0.00 88 1017.5
20260506092414 9 220 0.0 0.0 0.00 0.00 0.00 88 1017.6
20260506091910 10 227 0.0 0.0 0.00 0.00 0.00 87 1017.7
20260506091409 10 224 0.0 0.0 0.00 0.00 0.00 88 1017.4
20260506090905 10 220 0.0 0.0 0.00 0.00 0.00 88 1017.5
20260506090403 10 226 0.0 0.0 0.00 0.00 0.00 87 1017.4
20260506085859 10 226 0.0 0.0 0.00 0.00 0.00 87 1017.8
20260506085356 10 229 0.0 0.0 0.00 0.00 0.00 86 1017.6
20260506084852 10 221 0.0 0.0 0.00 0.00 0.00 86 1017.6
20260506084349 10 224 0.0 0.0 0.00 0.00 0.00 86 1017.8
20260506083846 10 218 0.0 1.6 0.00 0.00 0.00 86 1017.7
20260506083344 10 221 0.0 1.6 0.00 0.00 0.00 86 1017.6
20260506082841 10 221 0.0 0.0 0.00 0.00 0.00 86 1017.6
20260506082337 10 221 0.0 0.0 0.00 0.00 0.00 85 1017.6
20260506081833 10 224 0.0 0.0 0.00 0.00 0.00 86 1017.9
20260506081331 10 219 0.0 0.0 0.00 0.00 0.00 85 1017.9
20260506080829 10 221 0.0 0.0 0.00 0.00 0.00 85 1017.9
20260506080325 10 221 0.0 0.0 0.00 0.00 0.00 85 1018.1
20260506073309 11 220 0.0 0.0 0.00 0.00 0.00 85 1017.9
20260506072806 11 221 0.0 0.0 0.00 0.00 0.00 85 1017.8
20260506072305 11 200 0.0 0.0 0.00 0.00 0.00 84 1017.8
20260506071801 11 197 1.6 1.6 0.00 0.00 0.00 84 1017.9
20260506071259 11 221 0.0 0.0 0.00 0.00 0.00 84 1017.8
20260506070756 11 221 0.0 1.6 0.00 0.00 0.00 84 1017.6
20260506070253 11 221 0.0 0.0 0.00 0.00 0.00 84 1017.7
20260506062230 11 210 0.0 1.6 0.00 0.00 0.00 83 1017.1
20260506061726 11 217 0.0 1.6 0.00 0.00 0.00 83 1017.1
20260506061223 11 208 1.6 1.6 0.00 0.00 0.00 82 1017.0
20260506060722 11 217 0.0 0.0 0.00 0.00 0.00 83 1016.9
20260506060218 11 219 0.0 0.0 0.00 0.00 0.00 82 1016.9